MSR44 HECA-HEGN

Flight info

Callsign MSR44
Flight time 0h 44m
Altitude 29000
Route CVO L315 HGD
Aircraft A320/M-SDE3FGHIRWY/LB1

Departure

Time 2026-05-07 14:16
Airport Cairo International Airport (HECA)

Arrival

Time 2026-05-07 15:00
Airport Hurghada International Airport (HEGN)
Time Latitude Longitude Altitude Speed Heading
2026-05-07 13:45 30.10850 31.39856 370 ft 0 kts 76°
2026-05-07 14:07 30.10849 31.39850 370 ft 4 kts 76°
2026-05-07 14:07 30.10843 31.39819 370 ft 4 kts 76°
2026-05-07 14:07 30.10837 31.39793 370 ft 3 kts 76°
2026-05-07 14:07 30.10837 31.39767 370 ft 4 kts 128°
2026-05-07 14:08 30.10858 31.39750 370 ft 4 kts 161°
2026-05-07 14:08 30.10866 31.39747 370 ft 0 kts 165°
2026-05-07 14:10 30.10865 31.39747 370 ft 1 kts 165°
2026-05-07 14:10 30.10849 31.39752 370 ft 4 kts 165°
2026-05-07 14:11 30.10814 31.39763 370 ft 6 kts 165°
2026-05-07 14:11 30.10763 31.39778 370 ft 9 kts 166°
2026-05-07 14:11 30.10694 31.39799 370 ft 12 kts 164°
2026-05-07 14:11 30.10608 31.39824 371 ft 14 kts 166°
2026-05-07 14:12 30.10523 31.39850 375 ft 12 kts 165°
2026-05-07 14:12 30.10446 31.39874 379 ft 10 kts 169°
2026-05-07 14:12 30.10381 31.39826 380 ft 15 kts 229°
2026-05-07 14:12 30.10310 31.39730 384 ft 15 kts 230°
2026-05-07 14:13 30.10240 31.39637 387 ft 16 kts 230°
2026-05-07 14:13 30.10175 31.39564 389 ft 6 kts 204°
2026-05-07 14:13 30.10131 31.39577 389 ft 8 kts 144°
2026-05-07 14:13 30.10083 31.39627 389 ft 11 kts 137°
2026-05-07 14:14 30.10026 31.39684 389 ft 6 kts 141°
2026-05-07 14:14 30.10002 31.39734 388 ft 9 kts 105°
2026-05-07 14:14 30.10000 31.39814 388 ft 11 kts 88°
2026-05-07 14:14 30.10025 31.39906 388 ft 13 kts 50°
2026-05-07 14:15 30.10037 31.39922 388 ft 0 kts 49°
2026-05-07 14:15 30.10124 31.40038 389 ft 54 kts 49°
2026-05-07 14:15 30.10526 31.40571 387 ft 119 kts 49°
2026-05-07 14:15 30.11182 31.41445 433 ft 163 kts 48°
2026-05-07 14:16 30.11757 31.42557 1017 ft 169 kts 77°
2026-05-07 14:16 30.11578 31.43891 1692 ft 177 kts 118°
2026-05-07 14:16 30.10667 31.44976 2004 ft 203 kts 142°
2026-05-07 14:16 30.09441 31.45971 2338 ft 228 kts 143°
2026-05-07 14:17 30.08078 31.47089 2816 ft 252 kts 143°
2026-05-07 14:17 30.06600 31.48312 3500 ft 267 kts 143°
2026-05-07 14:17 30.05070 31.49572 4458 ft 272 kts 143°
2026-05-07 14:17 30.03516 31.50846 5448 ft 276 kts 143°
2026-05-07 14:18 30.01962 31.52118 6416 ft 280 kts 143°
2026-05-07 14:18 30.00364 31.53425 7377 ft 283 kts 144°
2026-05-07 14:18 29.98744 31.54748 8276 ft 288 kts 144°
2026-05-07 14:18 29.97090 31.56094 9138 ft 293 kts 144°
2026-05-07 14:19 29.95414 31.57463 9956 ft 297 kts 144°
2026-05-07 14:19 29.93685 31.58875 10433 ft 316 kts 144°
2026-05-07 14:19 29.91829 31.60392 10668 ft 339 kts 144°
2026-05-07 14:19 29.89871 31.61992 11223 ft 349 kts 144°
2026-05-07 14:20 29.87875 31.63621 11928 ft 354 kts 145°
2026-05-07 14:20 29.85880 31.65247 12653 ft 358 kts 145°
2026-05-07 14:20 29.83836 31.66911 13392 ft 362 kts 145°
2026-05-07 14:20 29.81770 31.68591 14110 ft 365 kts 145°
2026-05-07 14:21 29.79679 31.70291 14804 ft 369 kts 145°
2026-05-07 14:21 29.77573 31.72005 15479 ft 373 kts 145°
2026-05-07 14:21 29.75438 31.73742 16133 ft 377 kts 145°
2026-05-07 14:21 29.73290 31.75490 16777 ft 380 kts 145°
2026-05-07 14:22 29.71120 31.77250 17412 ft 384 kts 145°
2026-05-07 14:22 29.68925 31.79027 18019 ft 388 kts 145°
2026-05-07 14:22 29.66741 31.80800 18648 ft 391 kts 145°
2026-05-07 14:22 29.64506 31.82610 19282 ft 395 kts 145°
2026-05-07 14:23 29.62248 31.84438 19921 ft 398 kts 145°
2026-05-07 14:23 29.59975 31.86283 20556 ft 402 kts 145°
2026-05-07 14:23 29.57682 31.88141 21157 ft 405 kts 145°
2026-05-07 14:23 29.55366 31.90015 21740 ft 409 kts 145°
2026-05-07 14:24 29.53031 31.91899 22298 ft 412 kts 145°
2026-05-07 14:24 29.50674 31.93800 22826 ft 415 kts 145°
2026-05-07 14:24 29.48308 31.95708 23033 ft 416 kts 145°
2026-05-07 14:24 29.45938 31.97621 23081 ft 416 kts 145°
2026-05-07 14:25 29.43605 31.99503 23082 ft 416 kts 145°
2026-05-07 14:25 29.42006 32.00791 23083 ft 415 kts 145°
2026-05-07 14:25 29.38875 32.03312 23079 ft 415 kts 145°
2026-05-07 14:25 29.36511 32.05214 23073 ft 415 kts 145°
2026-05-07 14:26 29.34134 32.07126 23467 ft 419 kts 145°
2026-05-07 14:26 29.31744 32.09049 24013 ft 421 kts 145°
2026-05-07 14:26 29.29336 32.10988 24517 ft 424 kts 145°
2026-05-07 14:26 29.26916 32.12933 24983 ft 427 kts 145°
2026-05-07 14:27 29.24474 32.14895 25442 ft 430 kts 145°
2026-05-07 14:27 29.22053 32.16838 25871 ft 432 kts 145°
2026-05-07 14:27 29.19584 32.18820 26304 ft 435 kts 145°
2026-05-07 14:27 29.17104 32.20810 26725 ft 437 kts 145°
2026-05-07 14:28 29.14608 32.22812 27132 ft 440 kts 145°
2026-05-07 14:28 29.12094 32.24823 27528 ft 442 kts 146°
2026-05-07 14:28 29.09565 32.26843 27925 ft 445 kts 146°
2026-05-07 14:28 29.07022 32.28870 28294 ft 447 kts 146°
2026-05-07 14:29 29.04467 32.30908 28668 ft 449 kts 146°
2026-05-07 14:29 29.01897 32.32959 28956 ft 452 kts 146°
2026-05-07 14:29 28.99368 32.34978 29019 ft 445 kts 146°
2026-05-07 14:30 28.94330 32.38992 29017 ft 440 kts 146°
2026-05-07 14:30 28.89309 32.42984 29016 ft 439 kts 146°
2026-05-07 14:31 28.84302 32.46980 29007 ft 439 kts 146°
2026-05-07 14:31 28.79284 32.50963 29007 ft 439 kts 146°
2026-05-07 14:32 28.74294 32.54909 29004 ft 440 kts 146°
2026-05-07 14:32 28.69269 32.58890 28999 ft 440 kts 146°
2026-05-07 14:33 28.64243 32.62871 28993 ft 440 kts 146°
2026-05-07 14:33 28.59218 32.66843 28992 ft 440 kts 146°
2026-05-07 14:34 28.54222 32.70780 28991 ft 440 kts 146°
2026-05-07 14:34 28.49200 32.74747 28981 ft 440 kts 146°
2026-05-07 14:35 28.44181 32.78713 28981 ft 440 kts 146°
2026-05-07 14:35 28.39149 32.82672 28971 ft 440 kts 146°
2026-05-07 14:36 28.34151 32.86597 28969 ft 440 kts 146°
2026-05-07 14:36 28.29119 32.90549 28962 ft 440 kts 146°
2026-05-07 14:37 28.24094 32.94495 28684 ft 436 kts 146°
2026-05-07 14:37 28.19145 32.98367 27573 ft 429 kts 146°
2026-05-07 14:37 28.16700 33.00274 27029 ft 425 kts 146°
2026-05-07 14:38 28.14309 33.02139 26494 ft 422 kts 146°
2026-05-07 14:38 28.11901 33.04022 25966 ft 418 kts 146°
2026-05-07 14:38 28.09517 33.05887 25458 ft 415 kts 146°
2026-05-07 14:38 28.07151 33.07738 24967 ft 411 kts 146°
2026-05-07 14:39 28.04803 33.09572 24474 ft 409 kts 146°
2026-05-07 14:39 28.02466 33.11396 24007 ft 407 kts 146°
2026-05-07 14:39 28.00155 33.13219 23563 ft 404 kts 145°
2026-05-07 14:39 27.97907 33.15032 23129 ft 401 kts 145°
2026-05-07 14:40 27.95653 33.16872 22686 ft 398 kts 145°
2026-05-07 14:40 27.93421 33.18701 22232 ft 395 kts 145°
2026-05-07 14:40 27.91201 33.20518 21778 ft 392 kts 145°
2026-05-07 14:40 27.88997 33.22321 21320 ft 390 kts 145°
2026-05-07 14:41 27.86810 33.24110 20834 ft 387 kts 145°
2026-05-07 14:41 27.84633 33.25883 20354 ft 384 kts 145°
2026-05-07 14:41 27.82465 33.27639 19865 ft 382 kts 145°
2026-05-07 14:41 27.80317 33.29375 19371 ft 378 kts 146°
2026-05-07 14:42 27.78181 33.31097 18870 ft 376 kts 145°
2026-05-07 14:42 27.76091 33.32783 18367 ft 373 kts 145°
2026-05-07 14:42 27.73991 33.34480 17871 ft 370 kts 145°
2026-05-07 14:42 27.71905 33.36167 17374 ft 367 kts 146°
2026-05-07 14:43 27.69833 33.37839 16868 ft 365 kts 145°
2026-05-07 14:43 27.67775 33.39501 16379 ft 362 kts 145°
2026-05-07 14:43 27.65733 33.41152 15866 ft 360 kts 145°
2026-05-07 14:43 27.63706 33.42791 15380 ft 357 kts 145°
2026-05-07 14:44 27.61719 33.44391 14882 ft 355 kts 145°
2026-05-07 14:44 27.59714 33.46003 14387 ft 353 kts 145°
2026-05-07 14:44 27.57723 33.47603 13902 ft 350 kts 145°
2026-05-07 14:44 27.55746 33.49193 13424 ft 348 kts 145°
2026-05-07 14:45 27.53783 33.50772 12932 ft 346 kts 145°
2026-05-07 14:45 27.51798 33.52276 12445 ft 343 kts 151°
2026-05-07 14:45 27.49660 33.53432 11961 ft 340 kts 157°
2026-05-07 14:45 27.47527 33.54471 11496 ft 337 kts 157°
2026-05-07 14:46 27.45379 33.55516 11035 ft 335 kts 157°
2026-05-07 14:46 27.43241 33.56553 10904 ft 335 kts 157°
2026-05-07 14:46 27.41092 33.57594 10924 ft 337 kts 157°
2026-05-07 14:46 27.38934 33.58641 10923 ft 338 kts 157°
2026-05-07 14:47 27.36776 33.59690 10929 ft 338 kts 157°
2026-05-07 14:47 27.34574 33.60597 10879 ft 338 kts 165°
2026-05-07 14:47 27.32310 33.61279 10624 ft 336 kts 166°
2026-05-07 14:47 27.30057 33.61945 10392 ft 333 kts 166°
2026-05-07 14:48 27.27873 33.62590 10146 ft 324 kts 166°
2026-05-07 14:48 27.25736 33.63224 9880 ft 308 kts 165°
2026-05-07 14:48 27.23700 33.63827 9762 ft 299 kts 165°
2026-05-07 14:48 27.21696 33.64420 9654 ft 297 kts 165°
2026-05-07 14:49 27.19695 33.65013 9537 ft 297 kts 165°
2026-05-07 14:49 27.17701 33.65604 9409 ft 296 kts 165°
2026-05-07 14:49 27.15715 33.66192 9228 ft 295 kts 165°
2026-05-07 14:49 27.13739 33.66776 8877 ft 293 kts 165°
2026-05-07 14:50 27.11770 33.67358 8531 ft 292 kts 165°
2026-05-07 14:50 27.09836 33.67931 8188 ft 290 kts 165°
2026-05-07 14:50 27.07887 33.68511 7848 ft 289 kts 165°
2026-05-07 14:50 27.05948 33.69087 7508 ft 287 kts 165°
2026-05-07 14:51 27.04023 33.69660 7166 ft 286 kts 165°
2026-05-07 14:51 27.02106 33.70228 6823 ft 284 kts 165°
2026-05-07 14:51 27.00198 33.70791 6464 ft 283 kts 166°
2026-05-07 14:51 26.98301 33.71352 6178 ft 281 kts 166°
2026-05-07 14:52 26.96415 33.71909 6098 ft 281 kts 166°
2026-05-07 14:52 26.94542 33.72462 6109 ft 282 kts 166°
2026-05-07 14:52 26.92645 33.73025 6116 ft 279 kts 166°
2026-05-07 14:52 26.90851 33.73668 6120 ft 263 kts 152°
2026-05-07 14:53 26.89522 33.74975 6036 ft 252 kts 122°
2026-05-07 14:53 26.88977 33.76776 5909 ft 241 kts 91°
2026-05-07 14:53 26.89169 33.78592 5785 ft 230 kts 77°
2026-05-07 14:53 26.89600 33.80284 5566 ft 223 kts 59°
2026-05-07 14:54 26.90623 33.81502 5260 ft 219 kts 31°
2026-05-07 14:54 26.91951 33.82336 4929 ft 219 kts 26°
2026-05-07 14:54 26.93310 33.83093 4670 ft 215 kts 25°
2026-05-07 14:54 26.94623 33.83818 4566 ft 206 kts 24°
2026-05-07 14:55 26.95892 33.84518 4393 ft 201 kts 25°
2026-05-07 14:55 26.97140 33.85208 4126 ft 200 kts 24°
2026-05-07 14:55 26.98497 33.85627 3654 ft 207 kts 360°
2026-05-07 14:55 26.99891 33.85398 3327 ft 199 kts 344°
2026-05-07 14:56 27.01191 33.85014 3055 ft 194 kts 343°
2026-05-07 14:56 27.02483 33.84633 2811 ft 188 kts 344°
2026-05-07 14:56 27.03709 33.84271 2555 ft 178 kts 343°
2026-05-07 14:56 27.04864 33.83933 2309 ft 165 kts 343°
2026-05-07 14:57 27.05925 33.83620 2107 ft 153 kts 343°
2026-05-07 14:57 27.06941 33.83320 1898 ft 150 kts 345°
2026-05-07 14:57 27.07939 33.82993 1698 ft 148 kts 339°
2026-05-07 14:57 27.08882 33.82534 1508 ft 148 kts 336°
2026-05-07 14:58 27.09793 33.82042 1380 ft 148 kts 335°
2026-05-07 14:58 27.10707 33.81564 1254 ft 140 kts 337°
2026-05-07 14:58 27.11586 33.81140 1080 ft 136 kts 339°
2026-05-07 14:58 27.12459 33.80762 893 ft 134 kts 341°
2026-05-07 14:59 27.13346 33.80442 693 ft 133 kts 345°
2026-05-07 14:59 27.14244 33.80174 505 ft 133 kts 345°
2026-05-07 14:59 27.15138 33.79913 319 ft 133 kts 346°
2026-05-07 14:59 27.16032 33.79647 155 ft 133 kts 346°
2026-05-07 15:00 27.16835 33.79410 112 ft 95 kts 346°
2026-05-07 15:00 27.17195 33.79304 108 ft 28 kts 345°
2026-05-07 15:00 27.17396 33.79244 100 ft 31 kts 345°
2026-05-07 15:00 27.17608 33.79180 99 ft 28 kts 345°
2026-05-07 15:01 27.17787 33.79158 99 ft 26 kts
2026-05-07 15:01 27.17930 33.79187 98 ft 11 kts 16°
2026-05-07 15:01 27.17966 33.79249 99 ft 12 kts 110°
2026-05-07 15:01 27.17875 33.79300 97 ft 17 kts 166°
2026-05-07 15:02 27.17748 33.79339 99 ft 20 kts 164°
2026-05-07 15:02 27.17610 33.79380 100 ft 22 kts 165°
2026-05-07 15:02 27.17452 33.79426 100 ft 24 kts 165°
2026-05-07 15:02 27.17320 33.79465 102 ft 16 kts 166°
2026-05-07 15:03 27.17245 33.79511 101 ft 10 kts 120°
2026-05-07 15:03 27.17256 33.79618 96 ft 19 kts 75°
2026-05-07 15:03 27.17299 33.79796 70 ft 24 kts 75°
2026-05-07 15:03 27.17338 33.79961 55 ft 25 kts 75°
2026-05-07 15:04 27.17384 33.80148 55 ft 23 kts 75°
2026-05-07 15:04 27.17425 33.80323 50 ft 24 kts 73°
2026-05-07 15:04 27.17461 33.80473 50 ft 17 kts 76°
2026-05-07 15:04 27.17487 33.80581 58 ft 10 kts 71°
2026-05-07 15:05 27.17556 33.80611 58 ft 13 kts 349°
2026-05-07 15:05 27.17657 33.80581 55 ft 17 kts 345°
2026-05-07 15:05 27.17779 33.80544 55 ft 18 kts 345°
2026-05-07 15:05 27.17891 33.80511 52 ft 16 kts 345°
2026-05-07 15:06 27.18003 33.80478 54 ft 14 kts 345°
2026-05-07 15:06 27.18074 33.80456 55 ft 8 kts 346°
2026-05-07 15:06 27.18096 33.80450 58 ft 1 kts 345°
2026-05-07 15:06 27.18114 33.80449 58 ft 4 kts
2026-05-07 15:07 27.18138 33.80479 55 ft 7 kts 64°
2026-05-07 15:07 27.18152 33.80532 55 ft 6 kts 75°
2026-05-07 15:07 27.18157 33.80554 58 ft 1 kts 75°